Volver al catálogo

STARLINK-35022

ActivoComunicacionesVLEO
NORAD 65409·PAYLOAD·🇺🇸 United States

Lanzado Aug 31, 2025 desde Cape Canaveral Space Force Station

Loading…

Próximos Pases (próximas 24 horas)

TLE

ActualizadoSource: CelesTrak SupGP

Época: Sep 15, 2026, 03:38 UTC

1 65409C 25192F   26258.15187500 -.00025026  00000+0 -80490-3 0  2581
2 65409  53.1590  70.6898 0001265  87.1118 311.0483 15.31709207    13

Sigue STARLINK-35022 en tiempo real con AllMySat

Download on the App Store